Tracking 30923 objects as of 1-Jul-2025
HD Live streaming from Space Station
objects crossing your sky now

ARCSAT-1

Track ARCSAT-1 now!
10-day predictions
ARCSAT-1 is classified as:


NORAD ID: 52161
Int'l Code: 2022-033E
Perigee: 436.9 km
Apogee: 446.3 km
Inclination: 97.3 °
Period: 93.3 minutes
Semi major axis: 6812 km
RCS: Unknown
Launch date: April 1, 2022
Source: Norway (NOR)
Launch site: AIR FORCE EASTERN TEST RANGE (AFETR)

Uplink (MHz):
Downlink (MHz): 267.300
Beacon (MHz):
Mode: FM
Call sign:
Status: Inactive

Your satellite tracking list
Your tracking list is empty




NASA's NSSDC Master Catalog

Two Line Element Set (TLE):
1 52161U 22033E   25181.79912886  .00006715  00000-0  14943-3 0  9995
2 52161  97.2928 266.2202 0006844  48.9517 311.2322 15.43947404181320
Source of the keplerian elements: AFSPC